| time (UTC) | temp C | wind direction | speed KPH | gust KPH | rain 1hr cm | rain 24hr cm | rain mn cm | humidity % | barometer mb |
| 20260510180316 | 25 | 194 | 6.4 | 19.3 | 0.00 | 0.00 | 0.00 | 78 | 1013.5 |
| 20260510175808 | 26 | 203 | 8.0 | 17.7 | 0.00 | 0.00 | 0.00 | 78 | 1013.6 |
| 20260510175306 | 26 | 196 | 1.6 | 19.3 | 0.00 | 0.00 | 0.00 | 77 | 1013.8 |
| 20260510174800 | 26 | 214 | 4.8 | 20.9 | 0.00 | 0.00 | 0.00 | 77 | 1013.9 |
| 20260510174258 | 26 | 206 | 4.8 | 19.3 | 0.00 | 0.00 | 0.00 | 80 | 1013.8 |
| 20260510173754 | 26 | 12 | 4.8 | 11.3 | 0.00 | 0.00 | 0.00 | 80 | 1014.0 |
| 20260510173250 | 26 | 231 | 6.4 | 19.3 | 0.00 | 0.00 | 0.00 | 81 | 1014.0 |
| 20260510172745 | 27 | 178 | 11.3 | 11.3 | 0.00 | 0.00 | 0.00 | 80 | 1013.8 |
| 20260510172242 | 26 | 124 | 1.6 | 9.7 | 0.00 | 0.00 | 0.00 | 81 | 1014.1 |
| 20260510171739 | 26 | 213 | 1.6 | 8.0 | 0.00 | 0.00 | 0.00 | 81 | 1014.1 |
| 20260510171236 | 26 | 135 | 8.0 | 8.0 | 0.00 | 0.00 | 0.00 | 81 | 1013.9 |
| 20260510170733 | 26 | 6 | 4.8 | 8.0 | 0.00 | 0.00 | 0.00 | 81 | 1013.8 |
| 20260510170229 | 26 | 195 | 8.0 | 9.7 | 0.00 | 0.00 | 0.00 | 81 | 1013.9 |
| 20260510165725 | 26 | 112 | 0.0 | 4.8 | 0.00 | 0.00 | 0.00 | 82 | 1014.0 |
| 20260510165221 | 26 | 101 | 0.0 | 4.8 | 0.00 | 0.00 | 0.00 | 80 | 1013.9 |
| 20260510164718 | 26 | 358 | 4.8 | 8.0 | 0.00 | 0.00 | 0.00 | 82 | 1014.1 |
| 20260510164216 | 26 | 21 | 0.0 | 4.8 | 0.00 | 0.00 | 0.00 | 83 | 1014.1 |
| 20260510163710 | 26 | 237 | 3.2 | 9.7 | 0.00 | 0.00 | 0.00 | 83 | 1014.4 |
| 20260510163207 | 26 | 16 | 6.4 | 9.7 | 0.00 | 0.00 | 0.00 | 82 | 1014.3 |
| 20260510162706 | 25 | 28 | 3.2 | 6.4 | 0.00 | 0.00 | 0.00 | 83 | 1014.2 |
| 20260510162203 | 25 | 12 | 3.2 | 4.8 | 0.00 | 0.00 | 0.00 | 84 | 1014.2 |
| 20260510161659 | 25 | 47 | 4.8 | 8.0 | 0.00 | 0.00 | 0.00 | 83 | 1014.4 |
| 20260510161156 | 25 | 39 | 3.2 | 6.4 | 0.00 | 0.00 | 0.00 | 82 | 1014.1 |
| 20260510160653 | 25 | 354 | 3.2 | 4.8 | 0.00 | 0.00 | 0.00 | 83 | 1014.0 |
| 20260510160148 | 25 | 26 | 4.8 | 9.7 | 0.00 | 0.00 | 0.00 | 84 | 1014.0 |
| 20260510155644 | 25 | 174 | 3.2 | 6.4 | 0.00 | 0.00 | 0.00 | 86 | 1014.0 |
| 20260510155140 | 25 | 12 | 0.0 | 8.0 | 0.00 | 0.00 | 0.00 | 85 | 1014.0 |
| 20260510154636 | 25 | 36 | 3.2 | 6.4 | 0.00 | 0.00 | 0.00 | 87 | 1013.7 |
| 20260510154132 | 25 | 237 | 3.2 | 8.0 | 0.00 | 0.00 | 0.00 | 87 | 1013.8 |
| 20260510153627 | 25 | 69 | 4.8 | 6.4 | 0.00 | 0.00 | 0.00 | 88 | 1013.8 |
| 20260510153124 | 24 | 358 | 4.8 | 11.3 | 0.00 | 0.00 | 0.00 | 88 | 1014.0 |
| 20260510152620 | 24 | 92 | 4.8 | 6.4 | 0.00 | 0.00 | 0.00 | 88 | 1013.8 |
| 20260510152116 | 24 | 145 | 6.4 | 11.3 | 0.00 | 0.00 | 0.00 | 89 | 1013.8 |
| 20260510151613 | 23 | 68 | 3.2 | 8.0 | 0.00 | 0.00 | 0.00 | 89 | 1013.7 |
| 20260510151111 | 23 | 163 | 3.2 | 6.4 | 0.00 | 0.00 | 0.00 | 90 | 1013.8 |
| 20260510150606 | 23 | 1 | 4.8 | 11.3 | 0.00 | 0.00 | 0.00 | 91 | 1013.9 |
| 20260510145559 | 22 | 37 | 4.8 | 9.7 | 0.00 | 0.00 | 0.00 | 93 | 1014.2 |
| 20260510145055 | 22 | 50 | 0.0 | 6.4 | 0.00 | 0.00 | 0.00 | 94 | 1014.4 |
| 20260510144551 | 22 | 30 | 3.2 | 6.4 | 0.00 | 0.00 | 0.00 | 95 | 1014.1 |
| 20260510144048 | 22 | 2 | 3.2 | 6.4 | 0.00 | 0.00 | 0.00 | 96 | 1014.1 |
| 20260510143543 | 21 | 358 | 1.6 | 8.0 | 0.00 | 0.00 | 0.00 | 97 | 1014.2 |
| 20260510143040 | 21 | 343 | 1.6 | 8.0 | 0.00 | 0.00 | 0.00 | 98 | 1014.4 |
| 20260510142537 | 21 | 17 | 4.8 | 11.3 | 0.00 | 0.00 | 0.00 | 99 | 1014.4 |
| 20260510142033 | 21 | 27 | 6.4 | 11.3 | 0.00 | 0.00 | 0.00 | 99 | 1014.2 |
| 20260510141530 | 21 | 62 | 4.8 | 9.7 | 0.00 | 0.00 | 0.00 | 99 | 1014.1 |
| 20260510141028 | 21 | 26 | 4.8 | 8.0 | 0.00 | 0.00 | 0.00 | 99 | 1014.1 |
| 20260510140524 | 21 | 4 | 6.4 | 12.9 | 0.00 | 0.00 | 0.00 | 99 | 1014.2 |
| 20260510140023 | 21 | 9 | 4.8 | 9.7 | 0.00 | 0.00 | 0.00 | 99 | 1014.0 |
| 20260510135519 | 21 | 96 | 4.8 | 8.0 | 0.00 | 0.00 | 0.00 | 99 | 1014.0 |
| 20260510135016 | 20 | 347 | 3.2 | 9.7 | 0.00 | 0.00 | 0.00 | 99 | 1014.0 |
| 20260510134513 | 20 | 79 | 4.8 | 6.4 | 0.00 | 0.00 | 0.00 | 99 | 1013.9 |
| 20260510134010 | 20 | 75 | 3.2 | 4.8 | 0.00 | 0.00 | 0.00 | 99 | 1013.9 |
| 20260510133505 | 20 | 7 | 6.4 | 6.4 | 0.00 | 0.00 | 0.00 | 99 | 1013.9 |
| 20260510133001 | 20 | 10 | 6.4 | 6.4 | 0.00 | 0.00 | 0.00 | 99 | 1013.9 |
| 20260510132459 | 20 | 81 | 4.8 | 9.7 | 0.00 | 0.00 | 0.00 | 99 | 1013.7 |
| 20260510131955 | 20 | 9 | 4.8 | 8.0 | 0.00 | 0.00 | 0.00 | 99 | 1013.8 |
| 20260510131453 | 20 | 18 | 1.6 | 6.4 | 0.00 | 0.00 | 0.00 | 99 | 1013.6 |
| 20260510130950 | 20 | 10 | 6.4 | 6.4 | 0.00 | 0.00 | 0.00 | 99 | 1013.6 |
| 20260510130446 | 20 | 1 | 4.8 | 8.0 | 0.00 | 0.00 | 0.00 | 99 | 1013.4 |
| 20260510125944 | 19 | 54 | 6.4 | 8.0 | 0.00 | 0.00 | 0.00 | 99 | 1013.3 |
| 20260510125440 | 20 | 4 | 4.8 | 6.4 | 0.00 | 0.00 | 0.00 | 99 | 1013.1 |
| 20260510124937 | 19 | 351 | 6.4 | 8.0 | 0.00 | 0.00 | 0.00 | 99 | 1013.4 |
| 20260510124433 | 19 | 358 | 1.6 | 6.4 | 0.00 | 0.00 | 0.00 | 99 | 1013.1 |
| 20260510123930 | 19 | 344 | 3.2 | 4.8 | 0.00 | 0.00 | 0.00 | 99 | 1013.4 |
| 20260510123425 | 19 | 35 | 0.0 | 6.4 | 0.00 | 0.00 | 0.00 | 99 | 1013.0 |
| 20260510122922 | 19 | 14 | 4.8 | 8.0 | 0.00 | 0.00 | 0.00 | 99 | 1013.2 |
| 20260510122417 | 18 | 22 | 3.2 | 6.4 | 0.00 | 0.00 | 0.00 | 99 | 1013.2 |
| 20260510121913 | 19 | 58 | 1.6 | 4.8 | 0.00 | 0.00 | 0.00 | 99 | 1013.2 |
| 20260510121411 | 18 | 8 | 4.8 | 4.8 | 0.00 | 0.00 | 0.00 | 99 | 1012.8 |
| 20260510120908 | 19 | 77 | 3.2 | 4.8 | 0.00 | 0.00 | 0.00 | 99 | 1012.8 |
| 20260510120405 | 18 | 10 | 3.2 | 3.2 | 0.00 | 0.00 | 0.00 | 99 | 1012.8 |
| 20260510115901 | 18 | 54 | 3.2 | 8.0 | 0.00 | 0.00 | 0.00 | 99 | 1012.9 |
| 20260510115358 | 18 | 9 | 3.2 | 4.8 | 0.00 | 0.00 | 0.00 | 99 | 1012.6 |
| 20260510114854 | 18 | 61 | 0.0 | 4.8 | 0.00 | 0.00 | 0.00 | 99 | 1012.5 |
| 20260510114351 | 18 | 73 | 0.0 | 4.8 | 0.00 | 0.00 | 0.00 | 99 | 1012.3 |
| 20260510113851 | 18 | 19 | 8.0 | 8.0 | 0.00 | 0.00 | 0.00 | 99 | 1012.2 |
| 20260510113348 | 18 | 30 | 3.2 | 4.8 | 0.00 | 0.00 | 0.00 | 99 | 1012.1 |
| 20260510112845 | 18 | 244 | 0.0 | 6.4 | 0.00 | 0.00 | 0.00 | 99 | 1012.1 |
| 20260510112342 | 18 | 69 | 0.0 | 4.8 | 0.00 | 0.00 | 0.00 | 99 | 1011.9 |
| 20260510111838 | 18 | 5 | 4.8 | 6.4 | 0.00 | 0.00 | 0.00 | 99 | 1012.0 |
| 20260510111334 | 18 | 21 | 1.6 | 6.4 | 0.00 | 0.00 | 0.00 | 99 | 1011.8 |
| 20260510110834 | 18 | 47 | 8.0 | 8.0 | 0.00 | 0.00 | 0.00 | 99 | 1012.0 |
| 20260510110332 | 18 | 104 | 3.2 | 6.4 | 0.00 | 0.00 | 0.00 | 99 | 1011.9 |
| 20260510105827 | 18 | 358 | 0.0 | 4.8 | 0.00 | 0.00 | 0.00 | 99 | 1011.6 |
| 20260510105322 | 18 | 61 | 0.0 | 4.8 | 0.00 | 0.00 | 0.00 | 99 | 1011.6 |
| 20260510104818 | 18 | 26 | 3.2 | 4.8 | 0.00 | 0.00 | 0.00 | 99 | 1011.2 |
| 20260510104316 | 18 | 22 | 3.2 | 6.4 | 0.00 | 0.00 | 0.00 | 99 | 1011.2 |
| 20260510103812 | 18 | 43 | 4.8 | 6.4 | 0.00 | 0.00 | 0.00 | 99 | 1011.1 |
| 20260510103309 | 18 | 27 | 4.8 | 4.8 | 0.00 | 0.00 | 0.00 | 99 | 1011.0 |
| 20260510102804 | 18 | 118 | 1.6 | 4.8 | 0.00 | 0.00 | 0.00 | 99 | 1011.0 |
| 20260510102300 | 18 | 31 | 3.2 | 6.4 | 0.00 | 0.00 | 0.00 | 99 | 1010.7 |
| 20260510101757 | 18 | 54 | 3.2 | 9.7 | 0.00 | 0.00 | 0.00 | 99 | 1010.7 |
| 20260510101255 | 18 | 35 | 3.2 | 11.3 | 0.00 | 0.00 | 0.00 | 99 | 1010.8 |
| 20260510100751 | 18 | 358 | 4.8 | 8.0 | 0.00 | 0.00 | 0.00 | 99 | 1010.5 |
| 20260510100249 | 18 | 327 | 6.4 | 11.3 | 0.00 | 0.00 | 0.00 | 99 | 1010.7 |
| 20260510095744 | 18 | 13 | 6.4 | 8.0 | 0.00 | 0.00 | 0.00 | 99 | 1010.7 |
| 20260510095240 | 18 | 8 | 6.4 | 8.0 | 0.00 | 0.00 | 0.00 | 99 | 1010.6 |
| 20260510094738 | 18 | 66 | 3.2 | 4.8 | 0.00 | 0.00 | 0.00 | 99 | 1010.8 |
| 20260510094234 | 18 | 16 | 8.0 | 8.0 | 0.00 | 0.00 | 0.00 | 99 | 1010.5 |
| 20260510093730 | 18 | 34 | 4.8 | 11.3 | 0.00 | 0.00 | 0.00 | 99 | 1010.6 |
| 20260510093228 | 18 | 358 | 3.2 | 8.0 | 0.00 | 0.00 | 0.00 | 99 | 1010.7 |
| 20260510092724 | 18 | 19 | 4.8 | 11.3 | 0.00 | 0.00 | 0.00 | 99 | 1010.7 |
| 20260510092220 | 18 | 47 | 6.4 | 8.0 | 0.00 | 0.00 | 0.00 | 99 | 1010.6 |
| 20260510091715 | 18 | 12 | 6.4 | 8.0 | 0.00 | 0.00 | 0.00 | 99 | 1010.7 |
| 20260510091212 | 18 | 335 | 3.2 | 6.4 | 0.00 | 0.00 | 0.00 | 99 | 1010.3 |
| 20260510090709 | 18 | 4 | 4.8 | 8.0 | 0.00 | 0.00 | 0.00 | 99 | 1010.3 |
| 20260510090206 | 18 | 358 | 3.2 | 8.0 | 0.00 | 0.00 | 0.00 | 99 | 1010.1 |
| 20260510085701 | 18 | 46 | 3.2 | 6.4 | 0.00 | 0.00 | 0.00 | 99 | 1010.3 |
| 20260510085156 | 18 | 358 | 3.2 | 6.4 | 0.00 | 0.00 | 0.00 | 99 | 1010.3 |
| 20260510084653 | 18 | 1 | 3.2 | 4.8 | 0.00 | 0.00 | 0.00 | 99 | 1010.1 |
| 20260510084149 | 18 | 346 | 1.6 | 4.8 | 0.00 | 0.00 | 0.00 | 99 | 1010.1 |
| 20260510083646 | 19 | 21 | 4.8 | 4.8 | 0.00 | 0.00 | 0.00 | 99 | 1010.3 |
| 20260510083143 | 19 | 24 | 3.2 | 6.4 | 0.00 | 0.00 | 0.00 | 99 | 1010.3 |
| 20260510082639 | 19 | 354 | 3.2 | 6.4 | 0.00 | 0.00 | 0.00 | 99 | 1010.1 |
| 20260510082135 | 19 | 32 | 4.8 | 6.4 | 0.00 | 0.00 | 0.00 | 99 | 1010.3 |
| 20260510081629 | 19 | 3 | 4.8 | 8.0 | 0.00 | 0.00 | 0.00 | 99 | 1010.1 |
| 20260510081126 | 19 | 358 | 6.4 | 6.4 | 0.00 | 0.00 | 0.00 | 99 | 1010.1 |
| 20260510080625 | 19 | 358 | 0.0 | 6.4 | 0.00 | 0.00 | 0.00 | 99 | 1010.3 |
| 20260510080122 | 19 | 23 | 4.8 | 6.4 | 0.00 | 0.00 | 0.00 | 99 | 1010.0 |
| 20260510075620 | 19 | 13 | 8.0 | 8.0 | 0.00 | 0.00 | 0.00 | 99 | 1010.3 |
| 20260510075116 | 19 | 8 | 3.2 | 6.4 | 0.00 | 0.00 | 0.00 | 99 | 1010.2 |
| 20260510074614 | 19 | 358 | 3.2 | 6.4 | 0.00 | 0.00 | 0.00 | 99 | 1010.0 |
| 20260510074109 | 19 | 337 | 4.8 | 8.0 | 0.00 | 0.00 | 0.00 | 99 | 1009.9 |
| 20260510073605 | 19 | 19 | 4.8 | 8.0 | 0.00 | 0.00 | 0.00 | 99 | 1009.8 |
| 20260510073103 | 19 | 18 | 8.0 | 8.0 | 0.00 | 0.00 | 0.00 | 99 | 1009.8 |
| 20260510072559 | 20 | 358 | 6.4 | 8.0 | 0.00 | 0.00 | 0.00 | 99 | 1009.7 |
| 20260510072055 | 19 | 5 | 4.8 | 6.4 | 0.00 | 0.00 | 0.00 | 99 | 1010.0 |
| 20260510071551 | 19 | 358 | 3.2 | 8.0 | 0.00 | 0.00 | 0.00 | 99 | 1010.0 |
| 20260510071049 | 19 | 21 | 4.8 | 6.4 | 0.00 | 0.00 | 0.00 | 99 | 1010.0 |
| 20260510070546 | 20 | 9 | 6.4 | 6.4 | 0.00 | 0.00 | 0.00 | 99 | 1009.9 |
| 20260510070043 | 19 | 351 | 1.6 | 4.8 | 0.00 | 0.00 | 0.00 | 99 | 1010.0 |
| 20260510065539 | 19 | 15 | 4.8 | 6.4 | 0.00 | 0.00 | 0.00 | 99 | 1010.1 |
| 20260510065035 | 20 | 343 | 3.2 | 4.8 | 0.00 | 0.00 | 0.00 | 99 | 1010.2 |
| 20260510064532 | 19 | 352 | 1.6 | 6.4 | 0.00 | 0.00 | 0.00 | 99 | 1010.0 |
| 20260510064028 | 20 | 348 | 4.8 | 8.0 | 0.00 | 0.00 | 0.00 | 99 | 1010.0 |
| 20260510063525 | 20 | 358 | 1.6 | 8.0 | 0.00 | 0.00 | 0.00 | 99 | 1009.8 |
| 20260510063023 | 20 | 10 | 6.4 | 6.4 | 0.00 | 0.00 | 0.00 | 99 | 1010.2 |
| 20260510062518 | 20 | 358 | 1.6 | 8.0 | 0.00 | 0.00 | 0.00 | 99 | 1010.2 |
| 20260510062013 | 19 | 340 | 4.8 | 6.4 | 0.00 | 0.00 | 0.00 | 99 | 1010.0 |
| 20260510061511 | 20 | 15 | 3.2 | 6.4 | 0.00 | 0.00 | 0.00 | 99 | 1010.2 |
| 20260510061007 | 20 | 347 | 4.8 | 4.8 | 0.00 | 0.00 | 0.00 | 99 | 1010.2 |
| 20260510060504 | 20 | 15 | 3.2 | 6.4 | 0.00 | 0.00 | 0.00 | 99 | 1010.1 |
| 20260510060000 | 20 | 355 | 4.8 | 6.4 | 0.00 | 0.00 | 0.00 | 99 | 1010.2 |
| 20260510055456 | 20 | 354 | 3.2 | 3.2 | 0.00 | 0.00 | 0.00 | 99 | 1010.1 |
| 20260510054954 | 20 | 31 | 3.2 | 3.2 | 0.00 | 0.00 | 0.00 | 99 | 1010.2 |
| 20260510054449 | 20 | 343 | 3.2 | 3.2 | 0.00 | 0.00 | 0.00 | 99 | 1010.2 |
| 20260510053944 | 20 | 21 | 4.8 | 4.8 | 0.00 | 0.00 | 0.00 | 99 | 1010.2 |
| 20260510053440 | 20 | 2 | 3.2 | 6.4 | 0.00 | 0.00 | 0.00 | 99 | 1010.1 |
| 20260510052936 | 20 | 358 | 1.6 | 6.4 | 0.00 | 0.00 | 0.00 | 99 | 1010.2 |
| 20260510052432 | 20 | 358 | 1.6 | 4.8 | 0.00 | 0.00 | 0.00 | 99 | 1010.2 |
| 20260510051929 | 20 | 51 | 0.0 | 3.2 | 0.00 | 0.00 | 0.00 | 99 | 1010.4 |
| 20260510051425 | 20 | 2 | 3.2 | 4.8 | 0.00 | 0.00 | 0.00 | 99 | 1010.3 |
| 20260510050921 | 20 | 253 | 0.0 | 3.2 | 0.00 | 0.00 | 0.00 | 99 | 1010.2 |
| 20260510050418 | 20 | 178 | 3.2 | 3.2 | 0.00 | 0.00 | 0.00 | 99 | 1010.3 |
| 20260510045916 | 20 | 171 | 0.0 | 3.2 | 0.00 | 6.30 | 6.30 | 99 | 1010.3 |
| 20260510045413 | 20 | 73 | 0.0 | 3.2 | 0.00 | 6.30 | 6.30 | 99 | 1010.4 |
| 20260510044909 | 20 | 343 | 1.6 | 1.6 | 0.00 | 6.30 | 6.30 | 99 | 1010.3 |
| 20260510044407 | 20 | 6 | 0.0 | 0.0 | 0.00 | 6.30 | 6.30 | 99 | 1010.4 |
| 20260510043903 | 20 | 178 | 0.0 | 1.6 | 0.00 | 6.30 | 6.30 | 99 | 1010.6 |
| 20260510043359 | 20 | 183 | 0.0 | 0.0 | 0.00 | 6.30 | 6.30 | 99 | 1010.1 |
| 20260510042857 | 20 | 119 | 0.0 | 3.2 | 0.00 | 6.30 | 6.30 | 99 | 1010.4 |
| 20260510042353 | 20 | 183 | 0.0 | 3.2 | 0.00 | 6.30 | 6.30 | 99 | 1010.7 |
| 20260510041849 | 20 | 171 | 0.0 | 3.2 | 0.00 | 6.30 | 6.30 | 99 | 1010.4 |
| 20260510041346 | 20 | 64 | 0.0 | 1.6 | 0.00 | 6.30 | 6.30 | 99 | 1010.3 |
| 20260510040844 | 20 | 207 | 1.6 | 3.2 | 0.00 | 6.30 | 6.30 | 99 | 1010.3 |
| 20260510040341 | 20 | 79 | 0.0 | 4.8 | 0.00 | 6.30 | 6.30 | 99 | 1010.5 |
| 20260510035836 | 20 | 4 | 4.8 | 4.8 | 0.00 | 6.30 | 6.30 | 99 | 1010.7 |
| 20260510035332 | 20 | 358 | 0.0 | 3.2 | 0.00 | 6.30 | 6.30 | 99 | 1010.7 |
| 20260510034828 | 20 | 347 | 3.2 | 4.8 | 0.00 | 6.30 | 6.30 | 99 | 1010.7 |
| 20260510034326 | 20 | 339 | 3.2 | 4.8 | 0.00 | 6.30 | 6.30 | 99 | 1010.8 |
| 20260510033822 | 20 | 344 | 0.0 | 1.6 | 0.00 | 6.30 | 6.30 | 99 | 1010.9 |
| 20260510033319 | 21 | 343 | 3.2 | 4.8 | 0.00 | 6.30 | 6.30 | 99 | 1010.9 |
| 20260510032815 | 21 | 335 | 3.2 | 3.2 | 0.00 | 6.30 | 6.30 | 99 | 1010.7 |
| 20260510032312 | 21 | 182 | 0.0 | 4.8 | 0.00 | 6.30 | 6.30 | 99 | 1010.7 |
| 20260510031808 | 21 | 213 | 1.6 | 3.2 | 0.00 | 6.30 | 6.30 | 99 | 1010.5 |
| 20260510031303 | 21 | 178 | 0.0 | 1.6 | 0.00 | 6.30 | 6.30 | 99 | 1010.6 |
| 20260510030757 | 21 | 350 | 0.0 | 3.2 | 0.00 | 6.30 | 6.30 | 99 | 1010.7 |
| 20260510030254 | 21 | 342 | 3.2 | 3.2 | 0.00 | 6.30 | 6.30 | 99 | 1010.9 |
| 20260510025752 | 21 | 353 | 3.2 | 3.2 | 0.00 | 6.30 | 6.30 | 99 | 1010.7 |
| 20260510025249 | 21 | 289 | 0.0 | 3.2 | 0.00 | 6.30 | 6.30 | 98 | 1010.5 |
| 20260510024745 | 21 | 259 | 0.0 | 3.2 | 0.00 | 6.30 | 6.30 | 98 | 1010.5 |
| 20260510024241 | 21 | 232 | 1.6 | 8.0 | 0.00 | 6.30 | 6.30 | 99 | 1010.7 |
| 20260510023738 | 21 | 223 | 3.2 | 3.2 | 0.00 | 6.30 | 6.30 | 98 | 1010.6 |
| 20260510023230 | 21 | 241 | 0.0 | 8.0 | 0.00 | 6.30 | 6.30 | 99 | 1010.4 |
| 20260510022726 | 21 | 199 | 0.0 | 9.7 | 0.00 | 6.30 | 6.30 | 99 | 1010.6 |
| 20260510022226 | 21 | 180 | 0.0 | 11.3 | 0.00 | 6.30 | 6.30 | 99 | 1010.2 |
| 20260510021721 | 21 | 233 | 0.0 | 16.1 | 0.00 | 6.30 | 6.30 | 99 | 1010.0 |
| 20260510021219 | 21 | 186 | 8.0 | 12.9 | 0.00 | 6.30 | 6.30 | 99 | 1009.8 |
| 20260510020713 | 21 | 204 | 4.8 | 14.5 | 0.00 | 6.30 | 6.30 | 99 | 1009.7 |
| 20260510020209 | 21 | 252 | 3.2 | 11.3 | 0.00 | 6.30 | 6.30 | 99 | 1009.7 |
| 20260510015705 | 21 | 170 | 4.8 | 12.9 | 0.00 | 6.30 | 6.30 | 99 | 1009.4 |
| 20260510015201 | 21 | 210 | 0.0 | 4.8 | 0.00 | 6.30 | 6.30 | 99 | 1009.4 |
| 20260510014701 | 21 | 179 | 8.0 | 11.3 | 0.00 | 6.30 | 6.30 | 99 | 1009.3 |
| 20260510014159 | 21 | 178 | 4.8 | 9.7 | 0.00 | 6.30 | 6.30 | 99 | 1009.5 |
| 20260510013654 | 21 | 178 | 3.2 | 8.0 | 0.00 | 6.30 | 6.30 | 99 | 1009.4 |
| 20260510013150 | 21 | 189 | 0.0 | 4.8 | 0.00 | 6.30 | 6.30 | 99 | 1010.3 |
| 20260510012649 | 21 | 178 | 0.0 | 6.4 | 0.00 | 6.30 | 6.30 | 99 | 1010.2 |
| 20260510012146 | 21 | 199 | 3.2 | 4.8 | 0.00 | 6.30 | 6.30 | 99 | 1010.0 |
| 20260510011641 | 21 | 223 | 3.2 | 9.7 | 0.00 | 6.30 | 6.30 | 99 | 1009.9 |
| 20260510011137 | 21 | 180 | 4.8 | 9.7 | 0.00 | 6.30 | 6.30 | 99 | 1009.3 |
| 20260510010633 | 21 | 196 | 1.6 | 9.7 | 0.00 | 6.30 | 6.30 | 99 | 1009.5 |
| 20260510010130 | 21 | 190 | 8.0 | 11.3 | 0.00 | 6.30 | 6.30 | 99 | 1009.8 |
| 20260510005625 | 21 | 202 | 3.2 | 11.3 | 0.00 | 6.30 | 6.30 | 99 | 1009.5 |
| 20260510005123 | 21 | 183 | 8.0 | 9.7 | 0.05 | 6.30 | 6.30 | 99 | 1009.6 |
| 20260510004621 | 21 | 186 | 8.0 | 12.9 | 0.05 | 6.30 | 6.30 | 99 | 1009.6 |
| 20260510004119 | 20 | 212 | 3.2 | 8.0 | 0.00 | 6.27 | 6.27 | 99 | 1009.5 |
| 20260510003616 | 21 | 176 | 6.4 | 11.3 | 0.00 | 6.27 | 6.27 | 99 | 1009.6 |
| 20260510003112 | 20 | 180 | 4.8 | 9.7 | 0.00 | 6.27 | 6.27 | 99 | 1009.4 |
| 20260510002606 | 20 | 175 | 8.0 | 9.7 | 0.00 | 6.27 | 6.27 | 99 | 1009.9 |
| 20260510002103 | 20 | 79 | 0.0 | 3.2 | 0.00 | 6.27 | 6.27 | 99 | 1009.4 |
| 20260510001601 | 20 | 208 | 3.2 | 6.4 | 0.05 | 6.27 | 6.27 | 99 | 1009.9 |
| 20260510001100 | 20 | 88 | 0.0 | 3.2 | 0.13 | 6.27 | 6.27 | 99 | 1009.5 |
| 20260510000559 | 20 | 198 | 0.0 | 8.0 | 0.13 | 6.27 | 6.27 | 99 | 1009.6 |
| 20260510000056 | 20 | 88 | 0.0 | 6.4 | 0.05 | 6.25 | 6.25 | 99 | 1009.6 |
| 20260509235553 | 20 | 185 | 6.4 | 6.4 | 0.05 | 6.25 | 6.25 | 99 | 1009.8 |
| 20260509235050 | 20 | 166 | 4.8 | 8.0 | 0.18 | 6.25 | 6.25 | 99 | 1010.0 |
| 20260509234546 | 20 | 160 | 4.8 | 9.7 | 0.13 | 6.25 | 6.25 | 99 | 1010.0 |
| 20260509234044 | 20 | 188 | 4.8 | 6.4 | 0.05 | 6.22 | 6.22 | 99 | 1009.9 |
| 20260509233541 | 21 | 178 | 3.2 | 6.4 | 0.13 | 6.22 | 6.22 | 99 | 1010.2 |
| 20260509233038 | 20 | 252 | 0.0 | 1.6 | 0.13 | 6.20 | 6.20 | 99 | 1010.2 |
| 20260509232535 | 20 | 234 | 3.2 | 4.8 | 0.13 | 6.20 | 6.20 | 99 | 1010.2 |
| 20260509232032 | 20 | 191 | 4.8 | 8.0 | 0.13 | 6.20 | 6.20 | 99 | 1010.1 |
| 20260509231528 | 20 | 201 | 3.2 | 11.3 | 0.05 | 6.17 | 6.17 | 99 | 1009.7 |
| 20260509231026 | 20 | 179 | 8.0 | 11.3 | 0.00 | 6.17 | 6.17 | 99 | 1009.8 |
| 20260509230522 | 20 | 183 | 4.8 | 12.9 | 0.00 | 6.17 | 6.17 | 99 | 1010.0 |
| 20260509230019 | 20 | 228 | 4.8 | 8.0 | 0.00 | 6.17 | 6.17 | 99 | 1009.7 |
| 20260509225515 | 20 | 194 | 4.8 | 4.8 | 0.00 | 6.17 | 6.17 | 99 | 1009.4 |
| 20260509225010 | 20 | 214 | 3.2 | 4.8 | 0.00 | 6.17 | 6.17 | 99 | 1009.2 |
| 20260509224507 | 20 | 164 | 1.6 | 4.8 | 0.00 | 6.17 | 6.17 | 99 | 1008.9 |
| 20260509224004 | 20 | 178 | 1.6 | 3.2 | 0.00 | 6.17 | 6.17 | 99 | 1008.7 |
| 20260509223500 | 20 | 343 | 0.0 | 1.6 | 0.00 | 6.17 | 6.17 | 99 | 1008.6 |
| 20260509222958 | 20 | 162 | 0.0 | 3.2 | 0.05 | 6.17 | 6.17 | 99 | 1008.3 |
| 20260509222453 | 20 | 196 | 0.0 | 4.8 | 0.00 | 6.15 | 6.15 | 99 | 1008.6 |
| 20260509221949 | 20 | 37 | 4.8 | 8.0 | 0.05 | 6.15 | 6.15 | 99 | 1008.7 |
| 20260509221446 | 20 | 216 | 3.2 | 8.0 | 0.05 | 6.15 | 6.15 | 99 | 1009.0 |
| 20260509220941 | 20 | 176 | 4.8 | 11.3 | 0.00 | 6.15 | 6.15 | 99 | 1009.6 |
| 20260509220438 | 20 | 164 | 8.0 | 11.3 | 0.00 | 6.15 | 6.15 | 99 | 1009.7 |
| 20260509215934 | 20 | 199 | 4.8 | 6.4 | 0.00 | 6.15 | 6.15 | 99 | 1009.8 |
| 20260509215429 | 20 | 252 | 0.0 | 8.0 | 0.00 | 6.15 | 6.15 | 99 | 1009.7 |
| 20260509214927 | 20 | 172 | 6.4 | 6.4 | 0.00 | 6.15 | 6.15 | 99 | 1009.8 |
| 20260509214424 | 20 | 218 | 0.0 | 4.8 | 0.00 | 6.15 | 6.15 | 99 | 1009.4 |
| 20260509213921 | 20 | 244 | 3.2 | 3.2 | 0.00 | 6.15 | 6.15 | 99 | 1009.2 |
| 20260509213416 | 20 | 182 | 6.4 | 14.5 | 0.00 | 6.15 | 6.15 | 99 | 1008.4 |
| 20260509212914 | 20 | 211 | 8.0 | 14.5 | 0.00 | 6.15 | 6.15 | 99 | 1008.2 |
| 20260509212411 | 20 | 171 | 8.0 | 14.5 | 0.00 | 6.15 | 6.15 | 99 | 1008.2 |
| 20260509211907 | 20 | 201 | 8.0 | 16.1 | 0.00 | 6.15 | 6.15 | 99 | 1007.7 |
| 20260509211403 | 19 | 196 | 8.0 | 11.3 | 0.00 | 6.15 | 6.15 | 99 | 1008.1 |
| 20260509210900 | 20 | 188 | 6.4 | 9.7 | 0.00 | 6.15 | 6.15 | 99 | 1007.8 |
| 20260509210357 | 20 | 181 | 9.7 | 11.3 | 0.00 | 6.15 | 6.15 | 99 | 1008.0 |
| 20260509205852 | 20 | 175 | 8.0 | 9.7 | 0.00 | 6.15 | 6.15 | 99 | 1007.8 |
| 20260509205346 | 20 | 197 | 6.4 | 8.0 | 0.00 | 6.15 | 6.15 | 99 | 1008.1 |
| 20260509204843 | 20 | 176 | 4.8 | 8.0 | 0.00 | 6.15 | 6.15 | 99 | 1008.2 |
| 20260509204334 | 20 | 193 | 3.2 | 6.4 | 0.05 | 6.15 | 6.15 | 99 | 1008.4 |
| 20260509203830 | 19 | 178 | 0.0 | 1.6 | 0.18 | 6.15 | 6.15 | 99 | 1008.5 |
| 20260509203327 | 20 | 178 | 0.0 | 3.2 | 0.18 | 6.15 | 6.15 | 99 | 1009.1 |
| 20260509202824 | 20 | 343 | 0.0 | 1.6 | 0.05 | 6.12 | 6.12 | 99 | 1009.5 |
| 20260509202320 | 19 | 186 | 0.0 | 3.2 | 0.05 | 6.10 | 6.10 | 99 | 1009.5 |
| 20260509201819 | 19 | 186 | 0.0 | 4.8 | 0.05 | 6.10 | 6.10 | 99 | 1009.5 |
| 20260509201316 | 19 | 155 | 4.8 | 6.4 | 0.18 | 6.10 | 6.10 | 99 | 1009.3 |
| 20260509200813 | 19 | 188 | 4.8 | 8.0 | 0.18 | 6.07 | 6.07 | 99 | 1009.2 |
| 20260509200308 | 19 | 186 | 0.0 | 6.4 | 0.18 | 6.07 | 6.07 | 99 | 1009.3 |
| 20260509195805 | 20 | 145 | 3.2 | 11.3 | 0.23 | 6.05 | 6.05 | 99 | 1009.1 |
| 20260509195300 | 20 | 163 | 6.4 | 12.9 | 0.36 | 6.02 | 6.02 | 99 | 1009.3 |
| 20260509194759 | 20 | 174 | 8.0 | 9.7 | 0.43 | 5.99 | 5.99 | 99 | 1009.6 |
| 20260509194256 | 20 | 208 | 6.4 | 11.3 | 0.84 | 5.97 | 5.97 | 99 | 1009.4 |
| 20260509193753 | 20 | 174 | 9.7 | 12.9 | 0.89 | 5.92 | 5.92 | 99 | 1009.5 |
| 20260509193253 | 20 | 185 | 8.0 | 8.0 | 0.30 | 5.82 | 5.82 | 99 | 1010.1 |
| 20260509192749 | 20 | 289 | 1.6 | 9.7 | 0.23 | 5.77 | 5.77 | 99 | 1010.2 |
| 20260509192244 | 20 | 197 | 3.2 | 8.0 | 0.23 | 5.74 | 5.74 | 99 | 1009.7 |
| 20260509191740 | 20 | 187 | 8.0 | 16.1 | 0.30 | 5.74 | 5.74 | 99 | 1009.9 |
| 20260509191236 | 20 | 186 | 11.3 | 16.1 | 0.43 | 5.71 | 5.71 | 99 | 1010.1 |
| 20260509190732 | 20 | 183 | 8.0 | 9.7 | 0.43 | 5.69 | 5.69 | 99 | 1010.4 |
| 20260509190229 | 20 | 172 | 8.0 | 9.7 | 0.30 | 5.64 | 5.64 | 99 | 1010.3 |
| 20260509185727 | 20 | 185 | 4.8 | 8.0 | 0.30 | 5.61 | 5.61 | 99 | 1010.1 |
| 20260509185223 | 20 | 281 | 0.0 | 1.6 | 0.30 | 5.59 | 5.59 | 99 | 1010.1 |
| 20260509184721 | 20 | 201 | 0.0 | 3.2 | 0.36 | 5.56 | 5.56 | 99 | 1009.8 |
| 20260509184218 | 20 | 358 | 0.0 | 3.2 | 0.43 | 5.54 | 5.54 | 99 | 1009.5 |
| 20260509183714 | 20 | 141 | 3.2 | 8.0 | 0.43 | 5.49 | 5.49 | 99 | 1009.6 |
| 20260509183209 | 20 | 178 | 4.8 | 12.9 | 0.30 | 5.46 | 5.46 | 99 | 1009.8 |
| 20260509182705 | 20 | 199 | 4.8 | 11.3 | 0.30 | 5.41 | 5.41 | 99 | 1009.5 |
| 20260509182203 | 20 | 192 | 0.0 | 9.7 | 0.30 | 5.38 | 5.38 | 99 | 1009.7 |
| 20260509181700 | 20 | 178 | 0.0 | 8.0 | 0.30 | 5.36 | 5.36 | 99 | 1009.3 |
| 20260509181158 | 20 | 202 | 0.0 | 8.0 | 0.43 | 5.33 | 5.33 | 99 | 1009.6 |
| 20260509180654 | 20 | 166 | 3.2 | 6.4 | 0.48 | 5.31 | 5.31 | 99 | 1009.4 |